Weather History for KNGP - September, 2012

Change the Weather History Date:

Sunday, September 30, 2012

  Actual Average Record
Temperature  
Mean Temperature 78 °F -  
Max Temperature 84 °F 84 °F 91 °F (1998)
Min Temperature 73 °F 69 °F 57 °F (2000)
Cooling Degree Days 14    
Growing Degree Days 28 (Base 50)    
Moisture  
Dew Point 66 °F    
Average Humidity 69    
Maximum Humidity 83    
Minimum Humidity 52    
Precipitation  
Precipitation 0.00 in - - ()
Sea Level Pressure  
Sea Level Pressure 29.79 in    
Wind  
Wind Speed 17 mph (NW)    
Max Wind Speed 25 mph    
Max Gust Speed 33 mph    
Visibility 10 miles    
Events      
Averages and records for this station are not official NWS values.
T = Trace of Precipitation, MM = Missing Value Source: NWS Daily Summary

Daily Weather History Graph

Daily Weather History Graph

Search for Another Location

Airport or City:

Trip Planner

Search our weather history database for the weather conditions in past years. The results will help you decide how hot, cold, wet, or windy it might be!

Date:

Astronomy

Sep. 30, 2012 Rise Set
Actual Time 7:21 AM CDT 7:15 PM CDT
Civil Twilight 6:58 AM CDT 7:39 PM CDT
Nautical Twilight 6:31 AM CDT 8:06 PM CDT
Astronomical Twilight 6:04 AM CDT 8:33 PM CDT
Moon 7:29 PM CDT (9/30) 7:46 AM CDT (9/30)
Length of Visible Light 12h 40m
Length of Day
11h 54m
Full, 100% of the Moon is Illuminated
Sep 30
Full
Oct 8
Last Quarter
Oct 15
New
Oct 21
First Quarter
Oct 29
Full

Hourly Weather History & Observations

Time (CDT) Temp. Heat Index Dew Point Humidity Pressure Visibility Wind Dir Wind Speed Gust Speed Precip Events Conditions
12:56 AM 75.9 °F - 69.1 °F 79% 29.76 in 10.0 mi WNW 15.0 mph - N/A   Clear
1:56 AM 73.9 °F - 68.0 °F 82% 29.75 in 10.0 mi WNW 12.7 mph - N/A   Clear
2:12 AM 73.4 °F - 68.0 °F 83% 29.75 in 10.0 mi WNW 11.5 mph - N/A   Mostly Cloudy
2:56 AM 75.0 °F - 69.1 °F 82% 29.75 in 10.0 mi NW 17.3 mph - N/A   Overcast
3:56 AM 73.9 °F - 68.0 °F 82% 29.74 in 10.0 mi NW 17.3 mph 23.0 mph N/A   Overcast
4:56 AM 73.9 °F - 68.0 °F 82% 29.73 in 10.0 mi WNW 17.3 mph - N/A   Overcast
5:56 AM 75.0 °F - 66.9 °F 76% 29.74 in 10.0 mi NW 20.7 mph - N/A   Overcast
6:56 AM 73.9 °F - 68.0 °F 82% 29.77 in 10.0 mi NW 16.1 mph 28.8 mph N/A   Overcast
7:25 AM 73.4 °F - 66.2 °F 78% 29.79 in 10.0 mi NW 21.9 mph 26.5 mph N/A   Overcast
7:49 AM 73.4 °F - 66.2 °F 78% 29.80 in 10.0 mi NW 18.4 mph 26.5 mph N/A   Overcast
7:56 AM 73.9 °F - 66.0 °F 76% 29.80 in 10.0 mi NW 18.4 mph - N/A   Overcast
8:56 AM 75.0 °F - 66.0 °F 73% 29.82 in 10.0 mi NW 18.4 mph - N/A   Overcast
9:56 AM 75.9 °F - 64.9 °F 69% 29.83 in 10.0 mi WNW 17.3 mph - N/A   Overcast
10:56 AM 79.0 °F - 66.0 °F 64% 29.83 in 10.0 mi NW 21.9 mph 28.8 mph N/A   Mostly Cloudy
11:56 AM 79.0 °F - 66.0 °F 64% 29.82 in 10.0 mi NW 23.0 mph 28.8 mph N/A   Overcast
12:56 PM 82.0 °F 84.1 °F 66.0 °F 58% 29.82 in 10.0 mi NW 25.3 mph 33.4 mph N/A   Scattered Clouds
1:56 PM 84.0 °F 86.3 °F 66.0 °F 55% 29.80 in 10.0 mi NW 19.6 mph - N/A   Scattered Clouds
2:56 PM 82.9 °F 85.0 °F 66.0 °F 56% 29.78 in 10.0 mi NW 21.9 mph 28.8 mph N/A   Mostly Cloudy
3:56 PM 82.0 °F 83.8 °F 64.9 °F 56% 29.77 in 10.0 mi NNW 24.2 mph 27.6 mph N/A   Mostly Cloudy
4:56 PM 82.0 °F 83.8 °F 64.9 °F 56% 29.76 in 10.0 mi NW 12.7 mph - N/A   Scattered Clouds
5:56 PM 82.9 °F 84.6 °F 64.9 °F 54% 29.75 in 10.0 mi NNW 17.3 mph - N/A   Scattered Clouds
6:56 PM 82.0 °F 83.1 °F 63.0 °F 52% 29.76 in 10.0 mi NNW 18.4 mph - N/A   Scattered Clouds
7:56 PM 81.0 °F 82.7 °F 64.9 °F 58% 29.78 in 10.0 mi North 16.1 mph - N/A   Mostly Cloudy
8:56 PM 78.1 °F - 66.9 °F 68% 29.81 in 10.0 mi North 18.4 mph - N/A   Scattered Clouds
9:56 PM 77.0 °F - 64.9 °F 66% 29.83 in 10.0 mi North 17.3 mph - N/A   Partly Cloudy
10:56 PM 75.9 °F - 64.0 °F 67% 29.85 in 10.0 mi North 20.7 mph - N/A   Clear
11:56 PM 75.0 °F - 64.9 °F 71% 29.84 in 10.0 mi North 18.4 mph - N/A   Clear